Glendale Luke AFB, AZ

1:23 AM MST on December 15, 2019 (GMT -0700)
Luke Air Force Base

Weather History for KLUF - November, 2019

Change the Weather History Date:

Tuesday, November 12, 2019

  Actual Average Record
Temperature  
Mean Temperature 68 °F -  
Max Temperature 80 °F 79 °F 92 °F (1962)
Min Temperature 55 °F 45 °F 29 °F (1950)
Cooling Degree Days 2    
Growing Degree Days 18 (Base 50)    
Moisture  
Dew Point 39 °F    
Average Humidity 37    
Maximum Humidity 54    
Minimum Humidity 22    
Precipitation  
Precipitation 0.00 in - - ()
Sea Level Pressure  
Sea Level Pressure 30.02 in    
Wind  
Wind Speed 4 mph (East)    
Max Wind Speed 12 mph    
Max Gust Speed -    
Visibility 10 miles    
Events      
Averages and records for this station are not official NWS values.
T = Trace of Precipitation, MM = Missing Value Source: NWS Daily Summary

Daily Weather History Graph

Daily Weather History Graph

Search for Another Location

Airport or City:

Astronomy

Nov. 12, 2019 Rise Set
Actual Time 6:58 AM MST 5:28 PM MST
Civil Twilight 6:31 AM MST 5:54 PM MST
Nautical Twilight 6:02 AM MST 6:24 PM MST
Astronomical Twilight 5:32 AM MST 6:54 PM MST
Moon 5:56 PM MST (11/12) 6:55 AM MST (11/12)
Length of Visible Light 11h 23m
Length of Day
10h 30m
Full, 100% of the Moon is Illuminated
Nov 12
Full
Nov 19
Last Quarter
Nov 26
New
Dec 3
First Quarter
Dec 11
Full

Hourly Weather History & Observations

Time (MST) Temp. Dew Point Humidity Pressure Visibility Wind Dir Wind Speed Gust Speed Precip Events Conditions
12:58 AM 63.0 °F 38.3 °F 40% 29.99 in 10.0 mi Calm Calm - N/A   Clear
1:58 AM 61.0 °F 37.0 °F 41% 30.00 in 10.0 mi North 5.8 mph - N/A   Clear
2:58 AM 59.7 °F 34.0 °F 38% 30.00 in 10.0 mi NNE 4.6 mph - N/A   Clear
3:58 AM 57.7 °F 37.0 °F 46% 30.01 in 10.0 mi North 5.8 mph - N/A   Clear
4:58 AM 56.3 °F 35.8 °F 46% 30.03 in 10.0 mi North 6.9 mph - N/A   Clear
5:58 AM 56.5 °F 38.1 °F 50% 30.04 in 10.0 mi Calm Calm - N/A   Clear
6:58 AM 55.8 °F 38.8 °F 53% 30.06 in 10.0 mi North 5.8 mph - N/A   Clear
7:58 AM 62.8 °F 38.7 °F 41% 30.08 in 10.0 mi SE 3.5 mph - N/A   Clear
8:58 AM 69.6 °F 39.2 °F 33% 30.10 in 10.0 mi East 10.4 mph - N/A   Clear
9:58 AM 73.4 °F 39.2 °F 29% 30.10 in 10.0 mi East 11.5 mph - N/A   Clear
10:58 AM 76.1 °F 38.7 °F 26% 30.09 in 10.0 mi East 6.9 mph - 0.00 in   Clear
11:58 AM 77.9 °F 39.2 °F 25% 30.06 in 10.0 mi East 10.4 mph - N/A   Clear
12:58 PM 79.3 °F 39.4 °F 24% 30.02 in 10.0 mi East 10.4 mph - N/A   Clear
1:58 PM 80.1 °F 38.8 °F 23% 29.99 in 10.0 mi SE 10.4 mph - N/A   Clear
2:58 PM 80.2 °F 37.9 °F 22% 29.97 in 10.0 mi SE 9.2 mph - N/A   Clear
3:58 PM 80.1 °F 37.8 °F 22% 29.97 in 10.0 mi ESE 3.5 mph - N/A   Clear
4:58 PM 79.0 °F 37.9 °F 23% 29.97 in 10.0 mi SSE 4.6 mph - N/A   Clear
5:58 PM 76.1 °F 37.8 °F 25% 29.96 in 10.0 mi Calm Calm - N/A   Clear
6:58 PM 68.4 °F 41.0 °F 37% 29.98 in 10.0 mi Calm Calm - N/A   Clear
7:58 PM 68.5 °F 39.7 °F 35% 29.98 in 10.0 mi Calm Calm - N/A   Clear
8:58 PM 64.4 °F 42.6 °F 45% 29.99 in 10.0 mi SE 4.6 mph - N/A   Clear
9:58 PM 60.8 °F 42.1 °F 50% 30.00 in 10.0 mi Calm Calm - N/A   Clear
10:58 PM 59.0 °F 42.4 °F 54% 30.00 in 10.0 mi Calm Calm - N/A   Clear
11:58 PM 56.8 °F 39.4 °F 52% 29.99 in 10.0 mi WNW 4.6 mph - N/A   Clear